Regional Weather Roundup
Issued by NWS

Home | Current Version | Previous Version | Graphics & Text | Print | Product List | Glossary On
Versions: 1 2 3 4 5 6 7 8 9 10 11 12 13 14 15 16 17 18 19 20 21 22 23 24 25 26 27 28 29 30 31 32 33 34 35 36 37 38 39 40 41 42 43 44 45 46 47 48 49 50
939
ASUS44 KFWD 211315
RWRTX
NORTH TEXAS HOURLY WEATHER ROUNDUP
NATIONAL WEATHER SERVICE FORT WORTH TX
700 AM CST SUN JAN 21 2018

NOTE: "FAIR" INDICATES FEW OR NO CLOUDS BELOW 12,000 FEET WITH NO
SIGNIFICANT WEATHER AND/OR OBSTRUCTIONS TO VISIBILITY.

TXZ118-119-211400-
DALLAS/FORT WORTH METROPLEX

CITY           SKY/WX    TMP DP  RH WIND       PRES   REMARKS
DFW AIRPORT    MOCLDY    65  60  84 S15       29.87S
DALLAS LOVE    MOCLDY    64  59  83 S13       29.89S
FTW MEACHAM    MOCLDY    62  59  90 S15       29.86F
DAL-EXECUTIVE  CLOUDY    64  60  87 S10       29.89F
FTW-ALLIANCE   MOCLDY    61  57  87 S10       29.86F
FTW-NAS-JRB    FAIR      62  56  80 S9        29.87F
FTW-SPINKS     MOCLDY    63  59  88 S10G23    29.90S
ARLINGTON      MOCLDY    62  60  93 S14       29.88F
GRAND PRAIRIE  CLOUDY    63  58  84 SE9       29.90S
ADDISON        MOCLDY    63  57  82 S10G18    29.90S
MESQUITE       CLOUDY    63  61  94 S8        29.91S
LANCASTER      CLOUDY    63  59  89 S7        29.91F
$$

TXZ091>094-102>105-117-120-121-131>134-211400-
NORTH CENTRAL TEXAS

CITY           SKY/WX    TMP DP  RH WIND       PRES   REMARKS
SHRMAN/DENISON FAIR      62  56  83 S18G28    29.89R
GAINESVILLE    MOCLDY    58  55  87 S8        29.88F
BOWIE          CLOUDY    59  54  83 S15G22    29.84S
BRIDGEPORT     FAIR      59  53  81 S8        29.87S
DECATUR        FAIR      59  55  87 S12       29.85S
DENTON         FAIR      61  57  87 S13       29.87F
MCKINNEY       CLOUDY    62  60  93 S12       29.89S
BONHAM         MOCLDY    60  57  89 S14       29.90S
GREENVILLE     CLOUDY    66  63  88 S12       29.92S
ROCKWALL       CLOUDY    62  61  99 S9        29.91S
TERRELL        CLOUDY    63  60  90 S7        29.91F
WAXAHACHIE     CLOUDY    62  62 100 S7        29.91S
CLEBURNE       CLOUDY    61  61 100 S9        29.90F
GRANBURY       MOCLDY    62  57  84 SE10      29.87F
$$

TXZ083>090-098>101-113>116-127>130-139>142-154-155-211400-
WESTERN NORTH TEXAS

CITY           SKY/WX    TMP DP  RH WIND       PRES   REMARKS
WICHITA FALLS  FAIR      47  46  97 S10       29.80F
WF-KICKAPOO    FAIR      48  48  98 SE5       29.83F
VERNON         FAIR      48  41  76 S13       29.78F
ABILENE        FAIR      56  53  90 S18G28    29.80R
ABILENE-DYESS  FAIR      57  53  85 S28G36    29.78S
GRAHAM           N/A     56  56 100 SE6       29.81F
BRECKENRIDGE   FAIR      60  53  77 S14G23    29.82S
CISCO          CLOUDY    57  54  88 S14G20    29.84R
EASTLAND       CLOUDY    59  54  84 S13       29.85R
RANGER         CLOUDY    59  54  82 S12       29.85S
MINERAL WELLS  CLOUDY    59  54  83 SE7       29.84S
STEPHENVILLE   CLOUDY    60  56  85 S7        29.90S
COMANCHE       MOCLDY    59  58  99 S14G21    29.86S
COLEMAN        CLOUDY    60  53  78 S13       29.85S
$$

TXZ143>147-156>162-174-175-211400-
CENTRAL TEXAS

CITY           SKY/WX    TMP DP  RH WIND       PRES   REMARKS
WACO           CLOUDY    62  60  93 S12       29.90S
WACO-TSTC      CLOUDY    64  64 100 S6        29.91
WACO-MCGREGOR  CLOUDY    65  62  90 S16       29.90S
CORSICANA      CLOUDY    64  62  93 S13       29.93S
MEXIA          CLOUDY    65  61  88 S18       29.91F
HEARNE         CLOUDY    64  64 100 SE9       29.93F
CAMERON        CLOUDY    66  63  90 S12       29.91S
TEMPLE         CLOUDY    64  63  94 S17       29.91R
KILLEEN        CLOUDY    64  60  87 S15G22    29.89R
KILLEEN-SKYLRK CLOUDY    65  61  87 S12       29.91R
FORT HOOD      CLOUDY    63  59  88 S15       29.86F
GATESVILLE     CLOUDY    64  61  88 S12       29.91S
HAMILTON       CLOUDY    61  61 100 S13       29.90R
LAMPASAS       CLOUDY    63  59  86 S10       29.89R
$$

TXZ095>097-106>112-122>126-135>138-148>153-164>167-211400-
EAST TEXAS

CITY           SKY/WX    TMP DP  RH WIND       PRES   REMARKS
PARIS          CLOUDY    63  61  94 S10       29.93S
SULPHUR SPRNGS CLOUDY    64  62  91 S9        29.95S
MOUNT PLEASANT MOCLDY    64  61  91 SE9       29.97S
GILMER         CLOUDY    64  61  90 SE7       29.97R
MINEOLA        CLOUDY    64  61  88 S8        29.94S
TYLER          CLOUDY    65  62  90 S14       29.94S
LONGVIEW       CLOUDY    65  63  93 S13       29.97S
MARSHALL       CLOUDY    63  59  88 S9        30.01S
ATHENS         CLOUDY    61  59  94 S8G16     29.93S
PALESTINE      CLOUDY    65  62  89 SE10      29.96F
JACKSONVILLE   CLOUDY    64  62  93 S10       29.98F
CENTER         CLOUDY    62  60  95 S10G16    30.04R
NACOGDOCHES    LGT RAIN  64  62  93 SE10      30.00F
LUFKIN         CLOUDY    64  62  93 S9        30.01R
$$

SUPPLEMENTAL OBSERVATIONS (NWS FORT WORTH AREA)

CITY           SKY/WX    TMP DP  RH WIND       PRES   REMARKS
DENISON DAM      N/A     64  57  77 SW14        N/A
POSSUM KINGDOM   N/A     57  52  82 S7          N/A
GRANBURY         N/A     61  57  88 SE12        N/A
MCGREGOR         N/A     63  59  88 S15G22      N/A
TEMPLE           N/A     64  63  94 S10         N/A
ATHENS           N/A     64  61  88 S13         N/A
$$

SUPPLEMENTAL OBSERVATIONS (NWS NORMAN AREA)

CITY           SKY/WX    TMP DP  RH WIND       PRES   REMARKS
GOODLETT         N/A     48  35  62 S13       29.76R
ODELL            N/A     48  44  85 S13       29.77F
CROWELL          N/A     47  41  78 S10       29.78S
KNOX CITY        N/A     43  39  87 S7        29.80S WCI  38
SEYMOUR          N/A     47  45  90 S9        29.80S
MILLERS CREEK    N/A     48  43  81 S3          N/A
$$

SUPPLEMENTAL OBSERVATIONS (NWS SAN ANGELO AREA)

CITY           SKY/WX    TMP DP  RH WIND       PRES   REMARKS
WEINERT          N/A     51  47  86 S13       29.80R
HASKELL          N/A     51  47  86 S10       29.79S
THROCKMORTON     N/A     53  50  91 S9        29.81S
STAMFORD         N/A     56  51  86 S14       29.80S
CLYDE            N/A     55  52  92 S18       29.82F
HAMBY            N/A     57  52  82 S20         N/A
IVIE RESERVOIR   N/A     63  55  77 S16G22      N/A
COLORADO BEND    N/A     61  59  94 S8G18       N/A
$$

SUPPLEMENTAL OBSERVATIONS (NWS SHREVEPORT AREA)

CITY           SKY/WX    TMP DP  RH WIND       PRES   REMARKS
TEXARKANA        N/A     63  59  88 SE6         N/A
LINDEN           N/A     64  59  82 SE6         N/A
CADDO LAKE       N/A     63  59  88 SE5         N/A
LUFKIN           N/A     64  63  94 MISG        N/A
N SABINE NF      N/A    N/A N/A N/A MISG        N/A
$$

SUPPLEMENTAL OBSERVATIONS ARE A COLLECTION OF AUTOMATED INSTRUMENTS
THAT ARE MAINTAINED BY A VARIETY OF FEDERAL AND STATE AGENCIES.
CERTAIN ELEMENTS...SUCH AS HUMIDITY VALUES AND SUSTAINED WIND
SPEEDS...MAY BE APPROXIMATED.





USA.gov is the U.S. government's official web portal to all federal, state and local government web resources and services.